Regional Weather Roundup
Issued by NWS Burlington, VT

Home | Current Version | Previous Version | Text Only | Print | Product List | Glossary On
Versions: 1 2 3 4 5 6 7 8 9 10 11 12 13 14 15 16 17 18 19 20 21 22 23 24 25 26 27 28 29 30 31 32 33 34 35 36 37 38 39 40 41 42 43 44 45 46 47 48 49 50
000
ASUS41 KBTV 060530
RWRBTV
VERMONT REGIONAL WEATHER ROUNDUP
NATIONAL WEATHER SERVICE BURLINGTON VT
1200 AM EST FRI MAR 06 2015

NOTE: "FAIR" INDICATES FEW OR NO CLOUDS BELOW 12,000 FEET WITH NO
SIGNIFICANT WEATHER AND/OR OBSTRUCTIONS TO VISIBILITY.

* THESE REPORTS ARE NOT UNDER NWS QUALITY CONTROL AND/OR DO NOT
  REPORT WEATHER SUCH AS PRECIPITATION AND FOG.

VTZ001>019-060600-
_____VERMONT_____


CITY           SKY/WX    TMP DP  RH WIND       PRES   REMARKS
BURLINGTON     CLEAR     -1 -10  65 CALM      30.40R
MONTPELIER     CLEAR     -2 -12  62 CALM      30.33R
MORRISVILLE    CLEAR    -10 -16  74 CALM      30.36R
ST. JOHNSBURY*   N/A     -5 -11  75 MISG      30.33R
LYNDONVILLE*   FAIR      -5 -14  63 CALM      30.30S
MIDDLEBURY*    FAIR       0  -9  65 CALM      30.38R
RUTLAND*       CLEAR     -2  -8  78 CALM      30.34R
SPRINGFIELD    CLEAR      2  -7  66 CALM      30.35R
HIGHGATE*      FAIR       0 -11  60 CALM      30.40R
NEWPORT*       FAIR      -8 -14  75 CALM      30.32R
BENNINGTON     CLEAR      6  -6  57 W3        30.34R
SUTTON*          N/A     -6 N/A N/A MISG        N/A
MT. MANSFIELD*   N/A     -9 N/A N/A CALM        N/A

_____LAKE CHAMPLAIN_____


CITY           SKY/WX    TMP DP  RH WIND       PRES   REMARKS

$$

NYZ007-026>031-035-052-083-060600-
_____NORTHERN NEW YORK_____


CITY           SKY/WX    TMP DP  RH WIND       PRES   REMARKS
PLATTSBURGH    CLEAR      0 -11  59 SW3       30.40R
SARANAC LAKE   CLEAR    -21 -25  81 CALM      30.25R
MASSENA        CLEAR    -16 -21  78 CALM      30.42S
OGDENSBURG*    CLEAR    -17 -20  83 S3        30.40S
POTSDAM*       CLEAR     -8 -11  84 CALM      30.39S
WATERTOWN      CLEAR      3  -6  66 SW7       30.44R
FT DRUM        CLEAR      3  -6  66 W8        30.38R
ALBANY         CLEAR     11  -5  48 NW12      30.43R WCI  -3
GLENS FALLS    CLEAR     -1  -9  68 CALM      30.41R

$$
NHZ002-005-011-060600-
_____NEW HAMPSHIRE_____


CITY           SKY/WX    TMP DP  RH WIND       PRES   REMARKS
LEBANON        CLEAR     -2 -10  69 CALM      30.35R
KEENE          CLEAR     10  -8  44 CALM      30.34R
MT WASHINGTON  PTCLDY   -15 -33  40 NW41        N/A  WCI -50
PLYMOUTH       FAIR       6  -5  61 CALM      30.34R
WHITEFIELD     CLEAR    -14 -19  79 CALM      30.30R

$$

_____REGIONAL QUEBEC LOCATIONS_____


CITY           SKY/WX    TMP DP  RH WIND       PRES   REMARKS
MONTREAL       CLEAR      1 -11  55 SW5       30.39R
QUEBEC CITY    CLEAR     -2 -17  50 W6        30.30S
SHERBROOKE     CLEAR    -15 -18  84 E3        30.30R

_____REGIONAL ONTARIO LOCATIONS_____


CITY           SKY/WX    TMP DP  RH WIND       PRES   REMARKS
OTTAWA         CLEAR     -2 -13  60 W7        30.39R

______KEY______
VSB  - VISIBILITY IN MILES
WCI  - WIND CHILL INDEX
HX   - HEAT INDEX
$$



USA.gov is the U.S. government's official web portal to all federal, state and local government web resources and services.